SCP
0 0 0 0 0 0 0 0 0 0 0 0 0 0 0 0 0 0 0 0 0 0 0 0 0 0 0 0 0 0 0 0 0 0 0 0 0 0 0 0 0 0 0 0
0 0 0 0 0 0 0 0 0 0 0 0 0 0 0 0 0 0 0 0 0 0 0 0 0 0 0 0 0 0 0 0 0 0 0 0 0 0 0 0 0 0 0 0
0 0 0 0 0 0 0 0 0 0 0 0 0 0 0 0 0 0 0 0 0 0 0 0 0 0 0 0 0 0 0 0 0 0 0 0 0 0 0 0 0 0 0 0
0 0 0 0 0 0 0 0 0 0 0 0 0 0 0 0 0 0 0 0 0 0 0 0 0 0 0 0 0 0 0 0 0 0 0 1 0 0 0 0 0 0 0 0
0 0 0 0 0 0 0 0 0 0 0 0 0 0 0 0 0 0 0 0 0 0 0 0 0 0 0 0 0 0 0 0 0 0 0 0 0 0 0 0 0 0 0 0
0 0 0 0 0 0 0 0 0 0 0 0 0 0 0 0 0 0 0 0 0 0 0 0 0 0 0 0 0 0 0 0 0 0 0 0 1 1 1 0 0 0 1 1
0 0 0 0 0 0 0 0 0 0 0 0 0 0 0 0 0 0 0 0 0 0 0 0 0 0 0 0 0 0 0 0 0 0 0 0 0 1 1 1 0 0 1 1
0 0 0 0 0 0 0 0 0 0 0 0 0 0 0 0 0 0 0 0 0 0 0 0 0 0 0 0 0 0 0 0 0 0 0 0 0 0 0 0 0 0 1 0
0 0 0 0 0 0 0 0 0 0 0 0 0 0 0 0 0 0 0 0 0 0 0 0 0 0 0 0 0 0 0 0 0 0 0 0 0 0 0 0 0 0 0 0
0 0 0 0 0 0 0 0 0 0 0 0 0 0 0 0 0 0 0 0 0 0 0 0 0 0 0 0 0 0 0 0 0 0 0 0 0 0 0 0 0 0 0 0
0 0 0 0 0 0 0 0 0 0 0 0 0 0 0 0 0 0 0 0 0 0 0 0 0 0 0 0 0 0 0 0 0 0 0 0 0 0 0 0 0 0 0 0
-0 0 -0 0 0 0 0 0 0 0 0 0 0 0 0 0 0 0 0 0 0 0 0 0 0 0 0 0 0 0 0 0 0 0 0 0 0 0 0 0 0 0 0 0
0 0 0 0 0 0 0 0 0 0 0 0 0 0 0 0 0 0 0 0 0 0 0 0 0 0 0 0 0 0 0 0 0 0 0 0 0 0 0 0 0 0 0 0
-0 -0 0 0 0 0 0 0 0 0 0 0 0 0 0 0 0 0 0 0 0 0 0 0 0 0 0 0 0 0 0 0 0 0 0 0 0 0 0 0 0 0 0 0
0 -0 -0 -0 0 0 0 0 0 0 0 0 0 0 0 0 0 0 0 0 0 0 0 0 0 0 0 0 0 0 0 0 0 0 0 0 0 0 0 0 0 0 0 0
0 -0 -0 -0 -0 0 0 0 0 0 0 0 0 0 0 0 0 0 0 0 0 0 0 0 0 -0 0 0 0 0 0 0 0 0 0 0 0 0 0 0 0 0 0 0
0 0 0 -0 0 -0 0 0 0 0 0 0 0 0 0 0 0 0 0 0 -0 -0 -0 -0 -0 0 0 0 0 0 0 0 0 0 0 0 0 0 0 0 0 0 0 0
0 0 0 0 0 -0 0 -0 0 0 0 0 0 0 0 0 0 0 0 0 0 0 0 0 0 0 0 0 0 0 0 0 0 0 0 0 0 0 0 0 0 0 0 0
0 0 0 0 -0 0 0 0 0 0 0 0 0 0 0 0 0 0 0 0 0 0 0 0 0 0 0 0 0 0 0 0 0 0 0 0 0 0 0 0 0 0 0 0
0 0 0 0 0 -0 0 0 0 0 0 0 0 0 0 0 0 0 0 0 0 0 0 0 0 0 0 0 0 0 0 0 0 0 0 0 0 0 0 0 0 0 0 0
0 0 0 0 0 0 0 0 0 0 0 0 0 0 0 0 0 0 0 0 0 0 0 0 0 0 0 0 0 0 0 0 0 0 0 0 0 0 0 0 0 0 0 0
-0 -0 -0 0 0 0 0 0 0 0 0 0 0 0 0 0 0 0 0 0 0 0 0 0 0 0 0 0 0 0 0 0 0 0 0 0 0 0 0 0 0 0 0 0
0 0 0 -0 -0 0 0 0 0 0 0 0 0 0 0 0 0 0 0 0 0 0 0 0 0 0 0 0 0 0 0 0 0 0 0 0 0 0 0 0 0 0 0 0
0 0 0 0 0 0 -0 -0 -0 -0 -0 0 0 0 0 0 0 0 0 0 0 0 0 0 0 0 0 -0 -0 -0 -0 0 0 0 0 0 0 0 0 0 0 0 0 0
0 0 0 0 0 0 0 0 0 0 0 -0 -0 -0 -0 -0 -0 -0 -0 -0 -0 -0 0 -0 -0 -0 -0 -0 0 0 0 0 0 0 0 0 0 0 0 0 0 0 0 0
0 0 0 0 0 0 0 -0 0 0 0 0 0 0 -0 -0 0 -0 -0 -0 -0 -0 -0 -0 -0 -0 -0 0 0 0 0 0 0 0 0 0 0 0 0 0 0 0 0 0
Wind_Speed_500mb
35 18 32 35 33 22 17 23 30 21 25 27 38 30 26 40 33 13 23 37 32 41 40 41 43 41 37 47 46 51 50 43 49 61 57 54 50 49 51 46 45 46 45 44
18 42 30 25 28 31 36 30 19 9 11 25 19 30 24 29 50 27 32 36 36 24 37 37 45 47 47 47 49 47 47 45 46 53 58 56 54 50 51 49 50 51 51 49
39 19 38 35 33 35 37 37 18 14 10 8 7 17 23 24 51 62 50 34 28 23 24 20 37 41 47 51 51 51 53 51 50 51 51 53 55 56 59 58 57 56 55 55
33 47 37 42 37 34 39 24 13 19 15 7 5 12 21 31 33 39 63 40 37 40 29 34 24 36 41 41 41 49 51 52 51 52 55 58 63 64 60 59 60 65 62 60
6 25 37 36 41 29 18 15 25 14 11 9 12 4 9 15 24 34 52 43 40 46 47 36 34 32 22 25 39 46 46 44 52 56 59 62 66 68 63 57 60 58 59 61
20 32 15 40 33 23 9 10 16 11 8 8 19 14 8 14 26 14 37 38 20 10 14 19 17 22 30 38 37 42 46 54 54 57 57 64 70 72 71 67 67 64 63 63
12 16 17 11 43 26 23 21 6 7 10 13 35 16 20 10 11 18 19 34 27 14 5 5 11 15 20 23 32 40 45 48 52 57 60 61 68 73 74 73 69 62 63 70
7 13 22 14 21 26 39 34 10 13 14 8 27 18 12 41 39 21 26 28 25 16 6 4 4 4 4 8 13 21 23 26 33 41 54 58 65 60 67 71 68 60 62 67
5 13 8 23 23 40 35 37 21 8 2 9 12 12 5 14 15 30 39 39 35 30 29 32 31 25 21 17 12 10 9 16 24 29 34 44 50 61 65 61 60 56 55 58
10 13 5 15 25 40 38 39 29 2 9 6 13 10 8 17 22 25 29 38 41 46 45 44 45 46 45 43 37 29 23 20 15 14 18 24 33 43 54 62 67 57 53 56
7 8 4 9 10 28 24 29 19 9 8 9 9 7 8 19 29 31 27 35 40 42 40 36 37 36 38 37 34 33 32 29 25 23 21 16 12 16 24 33 43 48 55 57
3 7 7 13 6 21 35 29 49 19 11 4 5 3 20 33 34 41 35 33 36 35 32 29 29 26 27 28 28 28 26 24 23 22 22 20 18 16 16 17 21 26 30 34
4 4 8 1 6 6 8 17 33 7 6 10 9 6 4 30 27 38 35 32 27 28 27 19 21 23 24 24 24 23 21 18 14 12 13 15 16 15 13 14 17 20 25 30
5 1 3 2 6 6 10 17 12 21 6 6 6 21 15 16 17 26 27 26 23 25 20 15 20 22 23 24 22 22 21 21 19 16 15 15 17 20 21 23 25 27 29 32
6 1 3 1 1 3 4 14 7 7 8 9 7 24 18 15 16 16 26 27 31 25 19 19 20 22 23 23 24 24 25 26 26 26 27 29 32 34 35 37 39 40 39 41
14 2 3 3 2 6 4 11 14 11 7 10 8 14 20 27 15 25 29 31 30 24 17 17 20 23 25 27 27 29 31 32 33 32 33 34 37 39 43 46 49 52 53 55
13 8 7 3 9 8 7 4 4 4 4 4 4 19 19 11 16 25 33 30 25 19 13 12 15 20 24 26 27 28 29 31 33 34 35 38 41 42 43 46 49 52 55 60
9 9 6 3 8 5 7 3 6 4 10 9 11 12 16 19 29 26 24 22 17 12 13 17 22 26 30 33 33 34 34 35 34 34 34 36 40 43 46 50 53 56 58 60
8 3 3 5 2 6 6 5 5 7 6 10 7 11 20 21 21 22 12 10 9 11 14 19 25 30 33 37 40 43 43 43 43 43 43 44 46 48 50 53 56 59 64 67
6 6 4 4 3 6 5 7 4 4 2 3 20 17 23 17 6 7 13 2 5 12 18 25 30 35 40 43 47 49 50 51 52 52 53 53 53 54 54 53 54 57 61 65
3 1 6 5 1 12 3 13 1 11 10 17 34 31 20 7 10 20 6 6 11 17 23 30 35 39 41 44 47 49 50 53 55 57 58 58 58 59 59 60 58 58 59 61
10 10 7 3 6 13 17 8 11 11 27 31 29 25 16 8 6 11 15 18 22 25 29 32 36 38 40 46 50 52 54 58 61 64 65 67 67 65 64 65 64 62 62 64
5 10 6 12 10 7 26 11 18 14 31 28 24 18 16 20 25 25 28 28 27 30 32 35 38 39 38 40 46 50 52 57 61 64 67 69 71 70 67 65 63 63 62 65
9 13 4 6 12 28 45 25 26 22 27 27 16 15 19 21 22 28 34 33 32 32 33 31 31 36 41 44 47 51 56 60 62 64 66 68 70 71 68 67 67 66 62 63
10 9 11 10 23 26 39 34 43 41 36 34 31 23 21 24 24 23 29 32 30 29 25 29 36 42 46 49 50 51 55 60 63 63 63 64 64 64 66 66 66 66 63 60
28 20 15 13 18 22 7 8 37 57 54 50 42 38 43 37 33 33 33 30 27 22 26 32 38 46 49 51 52 51 54 57 60 62 62 62 62 61 64 67 68 60 61 59
Wind_Direction_500mb
207 211 211 209 222 248 243 211 212 199 216 189 220 240 252 289 293 264 250 262 237 211 213 208 208 212 215 209 217 215 225 224 216 216 218 220 221 224 231 236 238 242 243 242
249 223 220 227 228 223 242 254 225 175 44 179 209 242 257 270 281 260 245 250 268 239 213 209 205 204 213 209 220 217 226 231 222 221 223 228 227 231 241 240 241 242 246 247
223 242 209 227 225 226 228 234 237 176 122 23 358 254 223 239 255 270 282 256 257 275 246 216 196 206 216 219 215 222 219 229 234 231 229 232 240 240 242 240 243 244 247 249
239 237 250 214 227 221 232 223 245 144 139 179 113 262 220 229 225 238 261 249 242 251 249 227 226 221 214 220 230 230 227 224 228 239 234 234 236 247 251 250 249 251 252 252
214 211 231 228 222 220 247 196 220 149 137 124 170 219 235 263 224 222 228 236 228 236 245 254 244 232 204 214 225 227 224 230 232 230 238 239 241 252 258 256 260 260 258 255
259 293 297 237 222 205 221 271 180 165 100 253 192 185 203 197 217 217 218 190 168 204 233 234 225 210 210 212 216 221 230 227 225 228 234 240 247 252 255 256 256 260 261 260
239 248 242 291 204 189 200 194 136 166 186 229 173 187 235 250 73 90 77 80 91 87 81 317 258 253 252 247 239 243 246 244 238 236 235 237 245 253 258 261 262 259 255 257
249 222 190 217 216 197 202 198 167 172 193 162 154 217 245 227 254 108 97 95 92 95 132 159 324 321 278 275 271 256 257 257 255 249 245 241 239 245 254 257 258 258 252 256
196 236 159 192 205 210 195 213 212 134 81 121 187 238 208 146 118 103 103 98 95 93 86 79 79 72 58 42 25 357 309 275 270 271 266 257 248 240 241 244 246 248 248 252
299 284 340 217 213 233 192 199 214 255 134 197 192 193 205 164 136 121 113 111 105 98 89 83 77 72 67 61 53 45 37 26 3 325 293 270 265 260 252 251 253 250 248 248
283 259 137 2 218 192 196 201 206 186 198 163 133 227 305 148 137 123 112 114 109 100 89 77 70 62 59 55 51 48 46 42 35 28 20 3 327 290 272 264 262 262 261 258
340 304 291 217 210 284 223 208 196 190 228 231 128 353 340 112 114 112 115 114 102 87 78 69 67 60 51 44 37 36 36 41 41 38 34 26 12 354 334 309 288 276 267 262
335 52 328 290 80 255 206 262 193 192 151 189 129 177 58 106 89 94 96 118 98 86 84 78 58 41 31 27 23 20 15 19 19 30 31 23 12 360 341 321 307 298 292 286
313 78 191 81 318 329 325 225 297 201 113 142 155 135 141 123 119 103 94 105 93 88 84 58 48 39 33 26 16 7 359 354 341 335 332 335 330 324 319 315 309 303 298 293
27 132 78 33 83 233 272 -0 60 264 183 136 152 150 150 104 98 103 101 101 96 86 68 57 52 43 30 21 15 7 360 352 343 334 326 318 313 308 305 302 299 297 297 296
338 59 15 91 1 270 329 74 17 58 28 71 79 95 94 113 115 94 90 100 93 88 72 54 41 31 25 20 12 0 353 348 345 344 337 326 315 309 306 302 297 294 293 292
349 341 347 72 345 307 30 316 143 118 212 132 170 131 151 127 107 98 112 112 108 102 87 59 34 18 10 5 2 357 353 347 341 336 331 324 319 317 314 308 303 300 298 295
314 341 17 317 7 43 244 277 23 297 212 209 104 113 99 107 100 109 117 113 98 74 41 17 5 357 350 346 344 341 338 335 333 329 325 321 315 312 308 305 305 304 300 296
291 313 39 78 305 276 91 153 167 167 244 205 178 123 114 96 106 102 124 87 42 13 359 350 343 338 334 331 330 330 331 330 328 327 327 326 324 321 318 315 311 306 302 301
327 327 89 12 84 203 209 72 345 302 332 2 171 134 124 139 158 180 166 50 354 335 330 328 326 325 324 323 322 323 324 324 324 325 326 325 323 320 317 314 312 310 307 305
115 13 172 214 282 297 207 158 330 97 202 99 117 120 141 120 106 156 215 263 300 310 312 315 317 319 321 319 318 318 319 317 318 318 319 320 319 317 316 314 312 309 305 302
175 153 188 183 115 266 189 114 169 150 140 134 132 134 136 146 250 274 259 265 282 294 299 303 305 308 309 308 309 311 313 312 312 312 314 314 314 315 314 313 312 310 307 304
272 193 197 185 214 211 184 165 208 177 160 168 168 188 237 260 266 268 252 253 270 283 291 295 300 303 306 308 307 307 306 303 302 305 306 308 309 310 312 312 311 310 309 307
252 252 200 57 269 253 260 248 241 226 189 183 200 233 260 266 267 257 249 258 274 281 287 294 301 305 307 307 306 306 304 302 302 303 304 305 307 308 310 310 311 312 312 310
211 131 193 259 262 272 261 248 252 243 233 236 257 260 270 277 272 263 260 266 273 284 293 304 309 311 314 313 311 309 305 302 303 303 304 305 306 310 311 310 312 311 310 308
199 207 198 224 212 200 244 278 243 243 242 248 251 251 273 268 268 265 268 271 276 284 299 308 313 315 316 313 311 311 305 301 301 302 303 303 307 310 311 312 312 311 311 308
Wind_Speed_850mb
35 18 32 35 33 22 17 23 30 21 25 27 38 30 26 40 33 13 23 37 32 41 40 41 43 41 37 47 46 51 50 43 49 61 57 54 50 49 51 46 45 46 45 44
18 42 30 25 28 31 36 30 19 9 11 25 19 30 24 29 50 27 32 36 36 24 37 37 45 47 47 47 49 47 47 45 46 53 58 56 54 50 51 49 50 51 51 49
39 19 38 35 33 35 37 37 18 14 10 8 7 17 23 24 51 62 50 34 28 23 24 20 37 41 47 51 51 51 53 51 50 51 51 53 55 56 59 58 57 56 55 55
33 47 37 42 37 34 39 24 13 19 15 7 5 12 21 31 33 39 63 40 37 40 29 34 24 36 41 41 41 49 51 52 51 52 55 58 63 64 60 59 60 65 62 60
6 25 37 36 41 29 18 15 25 14 11 9 12 4 9 15 24 34 52 43 40 46 47 36 34 32 22 25 39 46 46 44 52 56 59 62 66 68 63 57 60 58 59 61
20 32 15 40 33 23 9 10 16 11 8 8 19 14 8 14 26 14 37 38 20 10 14 19 17 22 30 38 37 42 46 54 54 57 57 64 70 72 71 67 67 64 63 63
12 16 17 11 43 26 23 21 6 7 10 13 35 16 20 10 11 18 19 34 27 14 5 5 11 15 20 23 32 40 45 48 52 57 60 61 68 73 74 73 69 62 63 70
7 13 22 14 21 26 39 34 10 13 14 8 27 18 12 41 39 21 26 28 25 16 6 4 4 4 4 8 13 21 23 26 33 41 54 58 65 60 67 71 68 60 62 67
5 13 8 23 23 40 35 37 21 8 2 9 12 12 5 14 15 30 39 39 35 30 29 32 31 25 21 17 12 10 9 16 24 29 34 44 50 61 65 61 60 56 55 58
10 13 5 15 25 40 38 39 29 2 9 6 13 10 8 17 22 25 29 38 41 46 45 44 45 46 45 43 37 29 23 20 15 14 18 24 33 43 54 62 67 57 53 56
7 8 4 9 10 28 24 29 19 9 8 9 9 7 8 19 29 31 27 35 40 42 40 36 37 36 38 37 34 33 32 29 25 23 21 16 12 16 24 33 43 48 55 57
3 7 7 13 6 21 35 29 49 19 11 4 5 3 20 33 34 41 35 33 36 35 32 29 29 26 27 28 28 28 26 24 23 22 22 20 18 16 16 17 21 26 30 34
4 4 8 1 6 6 8 17 33 7 6 10 9 6 4 30 27 38 35 32 27 28 27 19 21 23 24 24 24 23 21 18 14 12 13 15 16 15 13 14 17 20 25 30
5 1 3 2 6 6 10 17 12 21 6 6 6 21 15 16 17 26 27 26 23 25 20 15 20 22 23 24 22 22 21 21 19 16 15 15 17 20 21 23 25 27 29 32
6 1 3 1 1 3 4 14 7 7 8 9 7 24 18 15 16 16 26 27 31 25 19 19 20 22 23 23 24 24 25 26 26 26 27 29 32 34 35 37 39 40 39 41
14 2 3 3 2 6 4 11 14 11 7 10 8 14 20 27 15 25 29 31 30 24 17 17 20 23 25 27 27 29 31 32 33 32 33 34 37 39 43 46 49 52 53 55
13 8 7 3 9 8 7 4 4 4 4 4 4 19 19 11 16 25 33 30 25 19 13 12 15 20 24 26 27 28 29 31 33 34 35 38 41 42 43 46 49 52 55 60
9 9 6 3 8 5 7 3 6 4 10 9 11 12 16 19 29 26 24 22 17 12 13 17 22 26 30 33 33 34 34 35 34 34 34 36 40 43 46 50 53 56 58 60
8 3 3 5 2 6 6 5 5 7 6 10 7 11 20 21 21 22 12 10 9 11 14 19 25 30 33 37 40 43 43 43 43 43 43 44 46 48 50 53 56 59 64 67
6 6 4 4 3 6 5 7 4 4 2 3 20 17 23 17 6 7 13 2 5 12 18 25 30 35 40 43 47 49 50 51 52 52 53 53 53 54 54 53 54 57 61 65
3 1 6 5 1 12 3 13 1 11 10 17 34 31 20 7 10 20 6 6 11 17 23 30 35 39 41 44 47 49 50 53 55 57 58 58 58 59 59 60 58 58 59 61
10 10 7 3 6 13 17 8 11 11 27 31 29 25 16 8 6 11 15 18 22 25 29 32 36 38 40 46 50 52 54 58 61 64 65 67 67 65 64 65 64 62 62 64
5 10 6 12 10 7 26 11 18 14 31 28 24 18 16 20 25 25 28 28 27 30 32 35 38 39 38 40 46 50 52 57 61 64 67 69 71 70 67 65 63 63 62 65
9 13 4 6 12 28 45 25 26 22 27 27 16 15 19 21 22 28 34 33 32 32 33 31 31 36 41 44 47 51 56 60 62 64 66 68 70 71 68 67 67 66 62 63
10 9 11 10 23 26 39 34 43 41 36 34 31 23 21 24 24 23 29 32 30 29 25 29 36 42 46 49 50 51 55 60 63 63 63 64 64 64 66 66 66 66 63 60
28 20 15 13 18 22 7 8 37 57 54 50 42 38 43 37 33 33 33 30 27 22 26 32 38 46 49 51 52 51 54 57 60 62 62 62 62 61 64 67 68 60 61 59
Wind_Direction_850mb
207 211 211 209 222 248 243 211 212 199 216 189 220 240 252 289 293 264 250 262 237 211 213 208 208 212 215 209 217 215 225 224 216 216 218 220 221 224 231 236 238 242 243 242
249 223 220 227 228 223 242 254 225 175 44 179 209 242 257 270 281 260 245 250 268 239 213 209 205 204 213 209 220 217 226 231 222 221 223 228 227 231 241 240 241 242 246 247
223 242 209 227 225 226 228 234 237 176 122 23 358 254 223 239 255 270 282 256 257 275 246 216 196 206 216 219 215 222 219 229 234 231 229 232 240 240 242 240 243 244 247 249
239 237 250 214 227 221 232 223 245 144 139 179 113 262 220 229 225 238 261 249 242 251 249 227 226 221 214 220 230 230 227 224 228 239 234 234 236 247 251 250 249 251 252 252
214 211 231 228 222 220 247 196 220 149 137 124 170 219 235 263 224 222 228 236 228 236 245 254 244 232 204 214 225 227 224 230 232 230 238 239 241 252 258 256 260 260 258 255
259 293 297 237 222 205 221 271 180 165 100 253 192 185 203 197 217 217 218 190 168 204 233 234 225 210 210 212 216 221 230 227 225 228 234 240 247 252 255 256 256 260 261 260
239 248 242 291 204 189 200 194 136 166 186 229 173 187 235 250 73 90 77 80 91 87 81 317 258 253 252 247 239 243 246 244 238 236 235 237 245 253 258 261 262 259 255 257
249 222 190 217 216 197 202 198 167 172 193 162 154 217 245 227 254 108 97 95 92 95 132 159 324 321 278 275 271 256 257 257 255 249 245 241 239 245 254 257 258 258 252 256
196 236 159 192 205 210 195 213 212 134 81 121 187 238 208 146 118 103 103 98 95 93 86 79 79 72 58 42 25 357 309 275 270 271 266 257 248 240 241 244 246 248 248 252
299 284 340 217 213 233 192 199 214 255 134 197 192 193 205 164 136 121 113 111 105 98 89 83 77 72 67 61 53 45 37 26 3 325 293 270 265 260 252 251 253 250 248 248
283 259 137 2 218 192 196 201 206 186 198 163 133 227 305 148 137 123 112 114 109 100 89 77 70 62 59 55 51 48 46 42 35 28 20 3 327 290 272 264 262 262 261 258
340 304 291 217 210 284 223 208 196 190 228 231 128 353 340 112 114 112 115 114 102 87 78 69 67 60 51 44 37 36 36 41 41 38 34 26 12 354 334 309 288 276 267 262
335 52 328 290 80 255 206 262 193 192 151 189 129 177 58 106 89 94 96 118 98 86 84 78 58 41 31 27 23 20 15 19 19 30 31 23 12 360 341 321 307 298 292 286
313 78 191 81 318 329 325 225 297 201 113 142 155 135 141 123 119 103 94 105 93 88 84 58 48 39 33 26 16 7 359 354 341 335 332 335 330 324 319 315 309 303 298 293
27 132 78 33 83 233 272 -0 60 264 183 136 152 150 150 104 98 103 101 101 96 86 68 57 52 43 30 21 15 7 360 352 343 334 326 318 313 308 305 302 299 297 297 296
338 59 15 91 1 270 329 74 17 58 28 71 79 95 94 113 115 94 90 100 93 88 72 54 41 31 25 20 12 0 353 348 345 344 337 326 315 309 306 302 297 294 293 292
349 341 347 72 345 307 30 316 143 118 212 132 170 131 151 127 107 98 112 112 108 102 87 59 34 18 10 5 2 357 353 347 341 336 331 324 319 317 314 308 303 300 298 295
314 341 17 317 7 43 244 277 23 297 212 209 104 113 99 107 100 109 117 113 98 74 41 17 5 357 350 346 344 341 338 335 333 329 325 321 315 312 308 305 305 304 300 296
291 313 39 78 305 276 91 153 167 167 244 205 178 123 114 96 106 102 124 87 42 13 359 350 343 338 334 331 330 330 331 330 328 327 327 326 324 321 318 315 311 306 302 301
327 327 89 12 84 203 209 72 345 302 332 2 171 134 124 139 158 180 166 50 354 335 330 328 326 325 324 323 322 323 324 324 324 325 326 325 323 320 317 314 312 310 307 305
115 13 172 214 282 297 207 158 330 97 202 99 117 120 141 120 106 156 215 263 300 310 312 315 317 319 321 319 318 318 319 317 318 318 319 320 319 317 316 314 312 309 305 302
175 153 188 183 115 266 189 114 169 150 140 134 132 134 136 146 250 274 259 265 282 294 299 303 305 308 309 308 309 311 313 312 312 312 314 314 314 315 314 313 312 310 307 304
272 193 197 185 214 211 184 165 208 177 160 168 168 188 237 260 266 268 252 253 270 283 291 295 300 303 306 308 307 307 306 303 302 305 306 308 309 310 312 312 311 310 309 307
252 252 200 57 269 253 260 248 241 226 189 183 200 233 260 266 267 257 249 258 274 281 287 294 301 305 307 307 306 306 304 302 302 303 304 305 307 308 310 310 311 312 312 310
211 131 193 259 262 272 261 248 252 243 233 236 257 260 270 277 272 263 260 266 273 284 293 304 309 311 314 313 311 309 305 302 303 303 304 305 306 310 311 310 312 311 310 308
199 207 198 224 212 200 244 278 243 243 242 248 251 251 273 268 268 265 268 271 276 284 299 308 313 315 316 313 311 311 305 301 301 302 303 303 307 310 311 312 312 311 311 308